#timestamp,LO_Frequency,Hit,StdDev 
1701486015.1,286046999.9,N
1701486035.9,286046999.7,N
1701486055.7,286047000.3,N
1701486075.6,286046998.2,N
1701486095.4,286046999.5,N
1701486115.2,286046997.0,N
1701486135.1,286046999.2,N
1701486136.0,286046999.2,N
1701486155.8,286046998.8,N
1701486175.7,286046999.0,N
1701486195.5,286046998.2,N
1701486215.3,286047000.3,N
1701486235.2,286047002.8,N
1701486255.0,286047000.3,N
1701486255.9,286047000.3,N
1701486275.7,286047002.5,N
1701486295.6,286046999.7,N
1701486315.4,286047000.1,N
1701486335.3,286046998.1,N
1701486355.1,286046999.2,N
1701486356.0,286046999.2,N
1701486375.8,286047000.7,N
1701486395.7,286047002.7,N
1701486415.5,286047002.3,N
1701486435.3,286047000.2,N
1701486455.2,286047000.1,N
1701486475.0,286046999.7,N
1701486475.9,286046999.7,N
1701486495.8,286047002.1,N
1701486515.6,286047002.0,N
1701486535.4,286047002.7,N
1701486555.3,286047002.8,N
1701486575.1,286047000.6,N
1701486595.8,286047000.7,N
1701486615.7,286046998.2,N
1701486635.5,286046998.6,N
1701486655.4,286046998.4,N
1701486675.2,286047001.0,N
1701486695.0,286047000.9,N
1701486695.9,286047000.9,N
1701486715.8,286046998.6,N
1701486735.6,286046998.5,N
1701486755.5,286046999.3,N
1701486775.3,286046996.6,N
1701486795.1,286046997.8,N
1701486815.9,286046996.8,N
1701486835.7,286046997.0,N
1701486855.6,286046997.3,N
1701486875.4,286046997.2,N
1701486895.2,286046996.8,N
1701486915.1,286046999.6,N
1701486916.0,286046999.6,N
1701486935.8,286046997.1,N
1701486955.6,286046997.5,N
1701486975.5,286046995.4,N
1701486995.3,286046996.4,N
1701487015.2,286046991.7,Y
1701487035.9,286046991.8,P
1701487055.7,286046992.2,N
1701487075.6,286046992.3,N
1701487095.4,286046992.7,N
1701487115.2,286046990.1,Y
1701487135.1,286046997.2,P
1701487136.0,286046997.2,N
1701487155.8,286046997.8,N
1701487175.7,286046994.9,Y
1701487195.5,286047002.7,P
1701487215.3,286047000.5,N
1701487235.2,286047002.4,N
1701487255.0,286047001.1,N
1701487255.9,286047001.1,N
1701487275.8,286046998.1,N
1701487295.6,286046999.1,N
1701487315.4,286047000.6,N
1701487335.3,286046999.7,N
1701487355.1,286047002.7,N
1701487375.8,286047000.0,N
1701487395.7,286047000.9,N
1701487415.5,286047000.7,N
1701487435.4,286046998.2,N
1701487455.2,286046999.4,N
1701487475.0,286046998.2,N
1701487475.9,286046998.2,N
1701487495.8,286046998.4,N
1701487515.6,286046999.2,N
1701487535.4,286046997.1,N
1701487555.3,286046997.4,N
1701487575.1,286046996.6,N
1701487595.9,286046999.6,N
1701487615.7,286046998.3,N
1701487635.5,286046999.3,N
1701487655.4,286046999.5,N
1701487675.2,286046999.4,N
1701487695.0,286046999.4,N
1701487695.9,286046999.4,N
1701487715.8,286046996.7,N
1701487735.6,286046997.2,N
1701487755.5,286046997.3,N
1701487775.3,286046994.9,Y
1701487795.1,286046997.3,P
1701487815.9,286046997.1,P
1701487835.7,286046997.2,P
1701487855.6,286046996.8,Y
1701487875.4,286046999.0,P
1701487895.2,286046998.4,N
1701487915.1,286047000.7,N
1701487916.0,286047000.7,N
1701487935.8,286047000.3,N
1701487955.2,286046998.2,N
1701487975.0,286046999.9,N
1701487975.9,286046999.9,N
1701487995.8,286047001.0,N
1701488015.6,286047000.6,N
1701488035.4,286047000.8,N
1701488055.3,286046998.4,N
1701488075.1,286046999.2,N
1701488095.9,286046999.2,N
1701488115.7,286046998.8,N
1701488135.5,286046999.1,N
1701488155.4,286046998.3,N
1701488175.2,286047000.8,N
1701488195.0,286047011.9,Y
1701488195.9,286047000.3,P
1701488215.8,286047002.7,P
1701488235.6,286047002.8,N
1701488255.5,286047002.4,N
1701488275.3,286047002.8,N
1701488295.1,286046999.7,N
1701488315.9,286047000.4,N
1701488335.7,286046998.7,N
1701488355.5,286046998.6,N
1701488375.4,286046998.3,N
1701488395.2,286047001.0,N
1701488415.0,286047000.6,N
1701488416.0,286047000.6,N
1701488435.8,286047000.7,N
1701488455.6,286047000.6,N
1701488475.5,286046998.2,N
1701488495.3,286047000.7,N
1701488515.1,286046999.8,N
1701488535.9,286047000.0,N
1701488555.7,286047000.0,N
1701488575.5,286047001.1,N
1701488595.4,286047000.8,N
1701488615.2,286047001.2,N
1701488635.1,286046998.1,N
1701488636.0,286046998.1,N
1701488655.8,286046998.4,N
1701488675.7,286046998.9,N
1701488695.5,286047000.8,N
1701488715.3,286047000.2,N
1701488735.2,286047000.2,N
1701488755.9,286047000.8,N
1701488775.7,286047002.8,N
1701488795.6,286047002.5,N
1701488815.4,286047000.7,N
1701488835.3,286047001.2,N
1701488855.1,286047001.2,N
1701488856.0,286047001.2,N
1701488875.8,286046999.3,N
1701488895.7,286046999.5,N
1701488915.5,286046996.5,N
1701488935.3,286046997.5,N
1701488955.2,286046996.5,N
1701488975.0,286046997.7,N
1701488975.9,286046997.7,N
1701488995.8,286046997.4,N
1701489015.6,286046996.9,N
1701489035.4,286046998.9,N
1701489055.3,286047001.2,N
1701489075.1,286046998.3,N
1701489095.8,286046999.0,N
1701489115.7,286046996.8,N
1701489135.5,286046999.2,N
1701489155.4,286046996.6,N
1701489175.2,286046996.9,N
1701489195.0,286046998.7,N
1701489195.9,286046998.7,N
1701489215.8,286046998.7,N
1701489235.6,286046998.7,N
1701489255.4,286046998.6,N
1701489275.3,286047000.7,N
1701489295.1,286047001.2,N
1701489315.9,286046999.0,N
1701489335.7,286047000.5,N
1701489355.5,286047002.7,N
1701489375.4,286047002.6,N
1701489395.2,286046999.8,N
1701489415.0,286047002.5,N
1701489415.9,286047002.5,N
1701489435.8,286047002.5,N
1701489455.6,286047002.8,N
1701489475.5,286046998.5,N
1701489495.3,286046998.3,N
1701489515.1,286047001.0,N
1701489535.9,286047000.7,N
1701489555.7,286047002.4,N
1701489575.5,286047001.4,N
1701489595.4,286047002.2,N
